User: anonymous   Login
Location: Waning Moon II Observatory
(30.3730°N, 89.7620°W)
Time: 14:33:37
(UTC-05:00)
Language:

Cosmos 1825 Rocket - Orbit

View from above orbital plane
View from above orbital plane
View from above satellite
View from above satellite

Ground track
Ground track

The orbit data is extracted from the following two-line orbital elements,

1 17567U 87024B   17263.68649954 +.00000091 +00000-0 +81131-5 0  9996
2 17567 082.5267 109.6589 0020089 035.1064 325.1470 14.83667546629542
Epoch (UTC): 20 September 2017 16:28:33
Eccentricity: 0.0020089
inclination: 82.5267°
perigee height: 604 km
apogee height: 632 km
right ascension of ascending node: 109.6589°
argument of perigee: 35.1064°
revolutions per day: 14.83667546
mean anomaly at epoch: 325.1470°
orbit number at epoch: 62954

The dashed part of the orbit path shows where the satellite is in the earth's shadow,  

DLR